Meath Environmental Platform

Observations for Trim Patrick St

Time AQI Temp °C Hum % Pres Pa CO μg/m³ H₂S μg/m³ NO μg/m³ NO₂ μg/m³ O₃ μg/m³ SO₂ μg/m³ PM1 μg/m³ PM2.5 μg/m³ PM10 μg/m³
Monday 3 August 2026
11:04 2 27.3 48 69,082 0 0 2.27 6 68.59 8.09 4.57 9.59 10.55
11:03 2 27.3 47 69,106 0 0 2.13 10.73 69.47 7.14 5.43 11.23 12.35
11:02 2 27.2 46 69,110 0 0 2.01 4.98 67.75 6.52 4.57 10.52 11.58
11:01 2 27.2 48 69,116 0 0 2.23 10.85 68.27 7.82 5.43 10.38 11.42
11:00 2 27.1 49 69,122 0 0 2.27 10.06 66.47 7.38 4.57 10.3 11.33
10:56 2 26.9 50 69,173 0 0 2.21 5.27 68.66 6.03 3.71 9.5 10.44
10:55 2 26.9 48 69,169 0 0 2.12 4.3 65.9 6.35 4.57 9.61 10.57
10:54 2 26.8 49 69,197 0 0 2.18 5.91 69.4 7.64 4.57 11.1 12.21
10:53 2 26.8 51 69,201 0 0 2.45 7.8 72.58 7.29 4.57 10.92 12.01
10:52 2 26.7 51 69,228 0 0 2.44 5.87 69.49 5.16 3.71 10.16 11.17
10:51 2 26.6 55 69,240 0 0 2.82 0 57.19 7.36 4.57 9.85 10.83
10:50 2 26.6 54 69,286 0 0 2.7 5.52 66.48 7.26 4.57 10.69 11.76
10:49 2 26.5 54 69,310 0 0 2.63 4.86 63.33 7.15 4.57 9.97 10.96
10:48 2 26.4 51 69,332 0 0 2.41 12.21 59.98 6.59 5.43 10.92 12.01
10:47 2 26.4 54 69,361 0 0 2.66 10.81 61.75 6.66 4.57 9.93 10.92
10:46 2 26.4 53 69,371 0 0 2.56 11.88 62.93 7.45 3.71 10 11
10:45 2 26.4 51 69,410 0 0 2.32 12.15 64.44 6.3 5.43 11.68 12.85
10:44 2 26.4 53 69,464 0 0 2.56 8.28 63.26 7.13 5.43 10.79 11.87
10:43 2 26.3 52 69,479 0 0 2.46 7 63.96 6.71 5.43 10.1 11.11
10:42 2 26.3 53 69,561 0 0 2.52 9.3 64.34 7.38 5.43 11.55 12.71